Sumburgh Airport

Airport
ICAO code: 
EGPB
IATA Code: 
LSI
Summary
ICAO Region: 
EUR
Territory: 
Location: 
Sumburgh, Shetland, Scotland
Serving: 
Shetland
Elevation: 
20 ft
Coordinates: 
Aerial View: 
59° 52' 38.568" N, 1° 17' 30.719" W
Metar
Observation
EGPB 172250Z AUTO 26021KT 9999 OVC018/// 08/05 Q1028
Station
Sumburgh Cape
Date/Time
2022-01-17 22:50:00
Wind direction
260°
Wind speed
21 kts
Lowest cloud amount
overcast
Temperature
8°C
Dew point
5°C
Humidity
81%
QNH
1028 hPa
Weather condition
n/a

Sumburgh Airport is the main airport serving the Shetland Islands in Scotland. It is located on the southern tip of the mainland, 17 nm south of Lerwick.

Climatology

Temperate Marine climate/Oceanic climate (Köppen climate classification Cfb). Moderately cool summer and comparatively warm winter with a temperature range of only 14°C. Prevailing south-westerly winds from the Atlantic Ocean.

Runways

Designator Length Width Surface Rops
6/24 550 45 ASP Yes/Yes
9/27 1180 46 ASP Yes/Yes
15/33 1426 46 ASP Yes/Yes

SKYbrary Partners:

Safety knowledge contributed by: